Location: Knowlton
(51.2333°N, 1.2667°E)
Time: 04:38:26
(UTC+00:00)

Lacrosse 5 rocket - Pass Details

Date: 18 April 2021
Orbit: 461 x 634 km, 57.0° (Epoch: 06 May)

Event Time Altitude Azimuth Distance (km) Brightness Sun altitude
Rises 21:03:44 0° 281° (W) 2,707 5.8 -17.5°
Reaches altitude 10° 21:06:01 10° 290° (WNW) 1,846 5.0 -17.8°
Maximum altitude 21:09:57 38° 359° (N) 901 2.8 -18.2°
Drops below altitude 10° 21:14:05 10° 68° (ENE) 1,943 3.9 -18.7°
Enters shadow 21:14:17 - 69° (ENE) 2,014 4.0 -18.7°
